[[{"header":{"parameterUnit":"m.s-1","parameterCategory":1,"la1":30.2991,"la2":30.254,"lo1":-89.0895,"lo2":-89.0444,"dy":0.0017,"dx":0.0017,"nx":28,"ny":28,"refTime":"2024-06-18T21:00:00:Z","depth":0,"parameterNumber":2,"parameterNumberName":"U-component_of_WINDS"},"data":[0,0,0,0,0,0,0,0,0,0,0,0,0,0,0,0,0,0,0,0,0,0,0,0,0,0,0,0,0,0,0,0,0,0,0,0,0,0,0,0,0,0,0,0,0,0,0,0,0,0,0,0,0,0,0,0,0,0,-8.6465,-8.6465,0,-8.6441,-8.644,-8.644,-8.6199,-8.6193,-8.6187,-8.6181,-8.6156,-8.6161,-8.6166,0,0,0,0,0,0,0,0,0,0,0,0,0,-8.6303,-8.6307,-8.6465,-8.6465,-8.6464,-8.6441,-8.644,-8.644,-8.62,-8.6193,-8.6185,-8.6178,-8.6155,-8.6161,-8.6167,0,0,0,0,0,0,0,0,0,0,0,0,0,-8.6336,-8.6309,-8.6465,-8.6342,-8.633,-8.6441,-8.644,-8.644,-8.6201,-8.6192,-8.6183,-8.6175,-8.6153,-8.616,-8.6167,-8.6394,0,0,-8.619,-8.6193,0,0,0,0,0,0,0,0,-8.6334,-8.6342,-8.636,-8.635,-8.6338,-8.6313,-8.6374,-8.6425,-8.6204,-8.625,-8.6181,-8.617,-8.6216,-8.6218,-8.6233,-8.6393,-8.6392,-8.6191,-8.6195,-8.6199,-8.6201,0,0,0,0,0,0,0,-8.6332,-8.6342,-8.6455,-8.6361,-8.6347,-8.6287,-8.6282,-8.6382,-8.6284,-8.6246,-8.6228,-8.6229,-8.6208,-8.6226,-8.6231,-8.6392,-8.6191,-8.6197,-8.6202,-8.6205,-8.6734,-8.6744,0,0,0,0,0,0,-8.6347,-8.6341,-8.6456,-8.6454,-8.6314,-8.6298,-8.6292,-8.633,-8.6282,-8.6266,-8.6236,-8.6217,-8.6218,-8.6222,-8.6229,-8.6488,-8.6198,-8.6205,-8.621,-8.6725,-8.6737,-8.6747,0,0,0,0,0,0,-8.6345,-8.636,-8.6457,-8.6393,-8.6401,-8.631,-8.6356,-8.6335,-8.6352,-8.6275,-8.6257,-8.6273,-8.6211,-8.6218,-8.6354,-8.6484,-8.6209,-8.6216,-8.6714,-8.6728,-8.6742,-8.7012,0,0,0,0,0,0,-8.6341,-8.636,-8.6445,-8.6397,-8.6405,-8.6584,-8.6364,-8.6341,-8.6366,-8.6341,-8.6305,-8.629,-8.6205,-8.6345,-8.6362,-8.6489,-8.6221,-8.6701,-8.672,-8.6737,-8.6991,-8.7034,-8.707,0,0,0,0,0,-8.6336,-8.6523,-8.6451,-8.6466,-8.651,-8.6592,-8.6596,-8.6494,-8.6378,-8.6462,-8.6412,-8.6291,-8.6469,-8.6361,-8.6378,-8.651,-8.6693,-8.6715,-8.6736,-8.6973,-8.7025,-8.7069,0,0,0,0,0,0,-8.6589,-8.6514,-8.6434,-8.661,-8.6609,-8.6551,-8.6654,-8.6553,-8.6585,-8.656,-8.6433,-8.6426,-8.6582,-8.656,-8.6441,-8.6726,-8.6559,-8.6586,-8.6734,-8.6783,-8.6822,-8.6822,-8.6228,0,0,0,0,0,-8.6666,-8.6738,-8.6669,-8.6832,-8.6835,-8.6746,-8.6777,-8.6699,-8.6692,-8.6691,-8.6651,-8.665,-8.6704,-8.6743,-8.6789,-8.6988,-8.6975,-8.7088,-8.7127,-8.716,-8.7183,-8.7284,-8.7333,-8.6818,-8.6818,-8.6817,0,0,-8.6824,-8.6792,-8.6845,-8.6882,-8.6871,-8.6948,-8.6747,-8.6837,-8.6893,-8.6704,-8.6829,-8.6801,-8.6791,-8.6959,-8.7031,-8.6945,-8.7323,-8.7188,-8.7215,-8.7219,-8.7312,-8.736,-8.7404,-8.6833,-8.683,-8.6828,0,0,-8.715,-8.7136,-8.7267,-8.7262,-8.7249,-8.7188,-8.7221,-8.7178,-8.7151,-8.7275,-8.7135,-8.72,-8.7298,-8.7296,-8.7308,-8.7636,-8.7524,-8.7655,-8.7861,-8.7962,-8.8002,-8.8037,-8.8151,-8.8194,-8.7679,-8.768,-8.768,0,-8.7348,-8.7459,-8.7348,-8.7448,-8.7467,-8.7301,-8.7433,-8.7433,-8.7437,-8.7454,-8.7359,-8.7478,-8.7459,-8.7623,-8.7703,-8.772,-8.7751,-8.7656,-8.8005,-8.8039,-8.8071,-8.8178,-8.8222,-8.7695,-8.7694,-8.7692,-8.769,0,-8.7701,-8.7781,-8.7889,-8.7896,-8.7928,-8.8045,-8.7951,-8.7997,-8.7917,-8.7867,-8.7995,-8.7968,-8.8005,-8.8039,-8.7962,-8.8192,-8.8139,-8.8028,-8.7856,-8.8137,-8.8235,-8.8276,-8.7718,-8.7712,-8.7707,-8.7704,0,0,-8.8183,-8.8128,-8.817,-8.817,-8.8145,-8.8203,-8.8313,-8.8349,-8.8389,-8.8399,-8.8485,-8.8573,-8.8469,-8.8483,-8.8405,-8.8494,-8.8752,-8.8369,-8.8367,-8.8438,-8.9001,-8.9082,-8.9132,-8.868,-8.8688,-8.8693,-8.9,0,-8.8495,-8.8675,-8.858,-8.8773,-8.8844,-8.8689,-8.8783,-8.8778,-8.8735,-8.8788,-8.8741,-8.8803,-8.8663,-8.867,-8.8751,-8.8703,-8.8862,-8.868,-8.8757,-8.8761,-8.876,-8.9184,-8.927,-8.9561,-8.9039,-8.9045,-8.905,0,-8.8881,-8.8906,-8.9107,-8.9067,-8.9093,-8.9179,-8.9204,-8.9258,-8.925,-8.9212,-8.9229,-8.913,-8.9233,-8.9068,-8.9208,-8.9087,-8.9113,-8.9095,-8.9104,-8.9103,-8.8919,-8.9191,-8.9651,-8.9694,-8.911,-8.9105,-8.9101,0,-8.9208,-8.9292,-8.9422,-8.9428,-8.9386,-8.945,-8.9435,-8.9417,-8.9445,-8.9468,-8.9484,-8.9521,-8.9539,-8.9569,-8.9482,-8.937,-8.9633,-8.9462,-8.9603,-8.9606,-8.9661,-8.9658,-9.0129,-8.9687,-8.9686,-8.9686,-8.9685,0,-8.9563,-8.9691,-8.9567,-8.9647,-8.9786,-8.9676,-8.9816,-8.9785,-8.9771,-8.9842,-8.9712,-8.9781,-8.9664,-8.9722,-8.9655,-8.978,-8.9791,-8.9762,-8.9742,-8.9771,-8.9774,-8.9783,-8.9759,-8.9697,-8.9695,-8.9692,-8.969,0,-8.9949,-8.9872,-9.0003,-8.9953,-8.9943,-9.0048,-9.0004,-9.0076,-9.0025,-9.0116,-9.0131,-9.0051,-9.0113,-9.003,-9.0084,-9.0039,-9.0209,-9.016,-9.0211,-9.0195,-9.034,-9.0326,-9.0829,-9.0888,-9.0414,-9.0418,-9.0422,0,-9.0178,-9.0272,-9.0233,-9.027,-9.0263,-9.0327,-9.0354,-9.0251,-9.0285,-9.0282,-9.0354,-9.0405,-9.0438,-9.0544,-9.0491,-9.0531,-9.048,-9.0654,-9.0485,-9.0511,-9.0478,-9.0472,-9.0479,-9.0687,-9.0693,-9.0697,-9.0701,0,-9.0592,-9.0549,-9.0593,-9.0626,-9.0662,-9.0682,-9.0693,-9.0732,-9.0623,-9.0668,-9.0729,-9.0756,-9.081,-9.0861,-9.0888,-9.0873,-9.0769,-9.0756,-9.0789,-9.0818,-9.0842,-9.0827,-9.03,-9.0743,-9.0739,-9.0736,-9.0733,-9.0732,-9.0903,-9.0979,-9.0962,-9.1016,-9.1014,-9.1027,-9.1091,-9.1048,-9.1097,-9.1132,-9.1069,-9.1146,-9.1135,-9.1159,-9.1157,-9.1215,-9.1139,-9.119,-9.1202,-9.1215,-9.1235,-9.0837,-9.122,-9.1219,-9.1218,-9.1217,-9.1216,0,-9.1306,-9.1288,-9.1339,-9.1358,-9.14,-9.1301,-9.1307,-9.1349,-9.1418,-9.1417,-9.1453,-9.1523,-9.1573,-9.1525,-9.1564,-9.1621,-9.1574,-9.1634,-9.1626,-9.1624,-9.1302,-9.1267,-9.1671,-9.1671,-9.1671,-9.1671,-9.1671,-9.1671,-9.1521,-9.1643,-9.1599,-9.1719,-9.17,-9.1773,-9.1785,-9.1797,-9.1794,-9.1878,-9.1918,-9.1887,-9.1866,-9.1904,-9.1945,-9.1929,-9.1948,-9.2025,-9.1993,-9.1692,-9.1647,-9.1604,-9.157,-9.2031,-9.2032,-9.2309,-9.2311,-9.2313]},{"header":{"parameterUnit":"m.s-1","parameterCategory":1,"la1":30.2991,"la2":30.254,"lo1":-89.0895,"lo2":-89.0444,"dy":0.0017,"dx":0.0017,"nx":28,"ny":28,"refTime":"2024-06-18T21:00:00:Z","depth":0,"parameterNumber":3,"parameterNumberName":"V-component_of_WINDS"},"data":[0,0,0,0,0,0,0,0,0,0,0,0,0,0,0,0,0,0,0,0,0,0,0,0,0,0,0,0,0,0,0,0,0,0,0,0,0,0,0,0,0,0,0,0,0,0,0,0,0,0,0,0,0,0,0,0,0,0,1.0751,1.075,0,1.071,1.071,1.0709,1.0587,1.0584,1.0582,1.0579,1.0541,1.0542,1.0544,0,0,0,0,0,0,0,0,0,0,0,0,0,1.0727,1.0728,1.0751,1.075,1.075,1.071,1.071,1.0709,1.0587,1.0584,1.0581,1.0578,1.054,1.0542,1.0544,0,0,0,0,0,0,0,0,0,0,0,0,0,1.0717,1.0728,1.0751,1.0684,1.0678,1.071,1.071,1.0709,1.0588,1.0584,1.058,1.0576,1.054,1.0542,1.0544,1.0639,0,0,1.0551,1.0552,0,0,0,0,0,0,0,0,1.0718,1.0718,1.0694,1.0689,1.0682,1.0649,1.0687,1.0686,1.0589,1.0622,1.0579,1.0574,1.058,1.0579,1.058,1.0637,1.0636,1.0551,1.0553,1.0554,1.0554,0,0,0,0,0,0,0,1.0719,1.0719,1.0735,1.0694,1.0686,1.0658,1.0652,1.0686,1.0625,1.0619,1.061,1.0607,1.0576,1.0579,1.0579,1.0635,1.0551,1.0553,1.0555,1.0555,1.0771,1.0775,0,0,0,0,0,0,1.0728,1.072,1.0736,1.0733,1.069,1.0661,1.0655,1.0664,1.0624,1.0614,1.061,1.0601,1.0577,1.0576,1.0577,1.0687,1.0554,1.0556,1.0557,1.0767,1.0772,1.0777,0,0,0,0,0,0,1.0728,1.0731,1.0738,1.0725,1.0723,1.0666,1.0677,1.0665,1.0667,1.0617,1.0606,1.0624,1.0574,1.0574,1.0625,1.0684,1.0557,1.0559,1.0762,1.0768,1.0774,1.0908,0,0,0,0,0,0,1.0728,1.0731,1.0766,1.0726,1.0724,1.0785,1.0681,1.0667,1.0671,1.0659,1.0627,1.0618,1.057,1.0622,1.0627,1.0685,1.056,1.0756,1.0765,1.0772,1.0898,1.0919,1.0936,0,0,0,0,0,1.0728,1.0805,1.0768,1.0771,1.0766,1.0789,1.0788,1.0731,1.0677,1.0712,1.068,1.0619,1.0677,1.0629,1.0633,1.0693,1.0752,1.0762,1.0772,1.089,1.0915,1.0936,0,0,0,0,0,0,1.0853,1.0799,1.0757,1.0824,1.0812,1.0768,1.081,1.0759,1.0763,1.0751,1.0681,1.0675,1.0737,1.0719,1.0667,1.0784,1.0705,1.0716,1.0793,1.0816,1.0835,1.0838,1.0562,0,0,0,0,0,1.0889,1.0911,1.0862,1.0926,1.0922,1.0868,1.0876,1.0833,1.0818,1.0813,1.0785,1.0774,1.079,1.0802,1.0813,1.0895,1.0888,1.0939,1.0958,1.0973,1.0984,1.1029,1.1052,1.0809,1.0809,1.0809,0,0,1.0963,1.0935,1.0954,1.0951,1.0936,1.0963,1.0864,1.0896,1.0915,1.0818,1.0865,1.0844,1.0828,1.0896,1.0924,1.0883,1.105,1.0986,1.0999,1.1001,1.1041,1.1064,1.1085,1.0816,1.0815,1.0814,0,0,1.111,1.1091,1.1143,1.1131,1.1111,1.1075,1.1088,1.1052,1.1035,1.1081,1.1009,1.1032,1.106,1.1052,1.1052,1.12,1.1145,1.1206,1.1305,1.1349,1.1368,1.1385,1.144,1.146,1.1217,1.1217,1.1217,0,1.1205,1.124,1.1177,1.1213,1.1215,1.1128,1.1182,1.1174,1.116,1.1164,1.1118,1.1153,1.1136,1.1202,1.1238,1.124,1.1254,1.1209,1.137,1.1386,1.1401,1.1453,1.1473,1.1225,1.1224,1.1223,1.1222,0,1.1358,1.1384,1.1429,1.1417,1.1424,1.1469,1.1414,1.1429,1.1387,1.1356,1.1406,1.1382,1.1389,1.1401,1.136,1.1463,1.1438,1.1383,1.1302,1.1433,1.148,1.15,1.1236,1.1233,1.1231,1.1229,0,0,1.1583,1.1537,1.1554,1.1549,1.1522,1.1541,1.1584,1.159,1.1605,1.1599,1.1634,1.1661,1.161,1.161,1.1568,1.1607,1.1729,1.1546,1.1545,1.1583,1.1843,1.1886,1.191,1.1692,1.1695,1.1698,1.1845,0,1.1724,1.1793,1.1738,1.1818,1.1843,1.1762,1.1799,1.1788,1.1761,1.1779,1.1749,1.1771,1.1701,1.1701,1.1735,1.1706,1.178,1.1695,1.1726,1.1728,1.1734,1.1934,1.198,1.212,1.1863,1.1866,1.1868,0,1.1898,1.19,1.1982,1.1951,1.196,1.1994,1.1997,1.2014,1.2001,1.1979,1.198,1.1928,1.197,1.189,1.1948,1.1891,1.1901,1.1889,1.1893,1.1895,1.1807,1.1944,1.2163,1.2185,1.1897,1.1894,1.1892,0,1.2056,1.2079,1.2131,1.2129,1.2095,1.2121,1.2108,1.209,1.2099,1.2102,1.2107,1.2115,1.212,1.2128,1.208,1.2026,1.2146,1.2061,1.213,1.2132,1.216,1.2159,1.2385,1.2164,1.2164,1.2163,1.2163,0,1.222,1.2274,1.2202,1.2235,1.2294,1.2232,1.2292,1.2271,1.2257,1.2285,1.2216,1.2245,1.2179,1.2201,1.2164,1.222,1.2222,1.2207,1.2197,1.2214,1.2216,1.222,1.221,1.2169,1.2168,1.2166,1.2166,0,1.2407,1.2361,1.2413,1.2377,1.2369,1.2415,1.2384,1.2414,1.2383,1.242,1.2426,1.2378,1.2401,1.2354,1.2371,1.2346,1.2425,1.2398,1.2429,1.2422,1.2495,1.249,1.2733,1.2763,1.2521,1.2524,1.2526,0,1.2516,1.2555,1.2524,1.2538,1.2529,1.2552,1.256,1.2501,1.2513,1.2502,1.2534,1.2551,1.2562,1.2604,1.2572,1.2585,1.2559,1.2644,1.2561,1.2578,1.2563,1.2562,1.2567,1.2661,1.2664,1.2667,1.2669,0,1.2714,1.2689,1.2703,1.2711,1.2722,1.2725,1.2723,1.2739,1.2677,1.2694,1.2717,1.2726,1.2743,1.2763,1.2769,1.2757,1.2704,1.2695,1.2712,1.2731,1.2748,1.2742,1.2478,1.269,1.2688,1.2686,1.2685,1.2684,1.2865,1.2898,1.2882,1.29,1.2893,1.2893,1.292,1.2893,1.2911,1.2921,1.2885,1.2917,1.2905,1.2908,1.2902,1.2928,1.289,1.2914,1.2921,1.2928,1.2941,1.2743,1.2928,1.2928,1.2927,1.2926,1.2926,0,1.3062,1.3047,1.3065,1.3065,1.3081,1.3028,1.3024,1.3042,1.307,1.3063,1.3075,1.3104,1.3122,1.3093,1.3107,1.3133,1.311,1.3139,1.3137,1.3136,1.2972,1.2957,1.3158,1.3158,1.3158,1.3158,1.3158,1.3158,1.3165,1.3219,1.3193,1.3243,1.3228,1.3259,1.3261,1.3262,1.3257,1.3291,1.3306,1.3286,1.3271,1.3284,1.33,1.3291,1.3301,1.334,1.3323,1.317,1.3147,1.3126,1.3111,1.3342,1.3342,1.3484,1.3486,1.3487]}]]